User: anonymous   Login
Location: Bonn
(50.7330°N, 7.1000°E)
Time: 11:41:59
(UTC+01:00)
Language:

Cosmos 1933 Rocket - Orbit

View from above orbital plane
View from above orbital plane
View from above satellite
View from above satellite

Ground track
Ground track

The orbit data is extracted from the following two-line orbital elements,

1 18959U 88020B   17016.17829529  .00000061  00000-0  46180-5 0  9999
2 18959  82.5363  52.8622 0015326 279.4336  80.5146 14.83318880558047
Epoch (UTC): 16 January 2017 04:16:44
Eccentricity: 0.0015326
inclination: 82.5363°
perigee height: 608 km
apogee height: 629 km
right ascension of ascending node: 52.8622°
argument of perigee: 279.4336°
revolutions per day: 14.83318880
mean anomaly at epoch: 80.5146°
orbit number at epoch: 55804

The dashed part of the orbit path shows where the satellite is in the earth's shadow,  

DLR